Tracking 34305 objects as of 7-Jun-2026
HD Live streaming from Space Station
objects crossing your sky now

STARLINK-3648

Track STARLINK-3648 now!
10-day predictions
STARLINK-3648 is classified as:


NORAD ID: 51993
Int'l Code: 2022-025AP
Perigee: 545.8 km
Apogee: 548.1 km
Inclination: 53.2 °
Period: 95.4 minutes
Semi major axis: 6917 km
RCS: Unknown
Launch date: March 9, 2022
Source: United States (US)
Launch site: AIR FORCE EASTERN TEST RANGE (AFETR)
Your satellite tracking list
Your tracking list is empty




NASA's NSSDC Master Catalog

Two Line Element Set (TLE):
1 51993U 22025AP  26157.85176389  .00004963  00000-0  32995-3 0  9999
2 51993  53.1761 358.8260 0001667 113.2050 246.9118 15.08812873234526
Source of the keplerian elements: AFSPC